SCP
0 0 0 0 1 1 0 0 0 1 0 0 0 0 0 0 0 0 0 0 0 0 0 0 0 0 0 0 0 0 0 0
1 0 0 0 1 1 1 0 0 0 0 0 0 0 0 0 0 0 0 0 0 0 0 0 0 0 0 0 0 0 0 0
2 0 1 1 1 1 0 0 0 0 0 0 0 0 0 0 0 0 0 0 0 0 0 0 0 0 0 0 0 0 0 0
1 1 1 0 1 1 0 0 1 1 0 0 0 0 0 0 0 0 0 0 0 0 0 0 0 0 0 0 -0 0 0 0
1 0 0 0 0 0 0 0 0 0 0 0 0 0 0 0 0 0 0 0 0 0 0 0 0 0 -0 -0 -0 -0 0 0
1 1 0 0 0 0 0 0 1 0 0 0 0 0 0 0 0 0 0 0 0 0 0 0 -0 -0 -0 -0 -0 -0 0 0
1 1 1 0 0 0 0 0 1 0 0 0 0 0 0 0 0 0 0 0 0 0 -0 -0 -0 -0 0 0 0 -0 0 0
1 2 2 1 0 0 0 1 0 0 0 0 0 0 0 0 0 0 0 0 0 0 -0 -0 -0 0 0 0 0 0 0 0
0 2 4 2 1 0 0 0 0 0 0 0 0 0 0 0 0 0 0 0 0 0 0 0 0 0 0 0 0 0 0 0
1 1 0 1 2 1 2 0 0 0 0 0 0 0 0 0 0 0 0 0 0 0 0 0 0 0 0 0 0 0 0 0
0 2 2 3 2 3 3 1 0 0 0 0 0 0 0 0 0 0 0 0 0 0 0 0 1 1 0 0 0 0 0 0
0 0 2 3 3 2 3 2 1 0 0 0 0 1 0 0 1 0 0 0 0 1 0 1 1 1 1 0 0 0 0 0
0 0 3 2 2 2 2 3 1 1 1 1 1 1 0 0 1 1 0 0 1 1 0 1 0 1 0 0 0 0 0 0
0 0 1 3 2 2 1 4 3 3 2 2 2 1 0 0 0 0 0 0 1 0 1 1 0 1 1 0 0 0 0 0
0 0 0 1 3 3 3 3 3 2 2 1 1 1 0 0 0 0 0 2 2 2 1 1 1 1 0 0 0 0 0 0
0 1 2 1 2 5 5 3 2 2 2 1 1 0 0 0 0 0 2 2 2 1 1 1 1 1 0 0 0 0 0 0
0 1 1 2 1 4 5 4 3 2 2 2 1 0 0 0 0 1 2 1 1 1 2 1 1 0 1 0 0 0 0 0
1 0 1 1 1 3 3 4 4 2 2 1 1 1 0 0 0 1 1 2 1 1 1 1 1 1 0 0 0 0 0 0
0 1 1 1 1 2 4 4 3 2 2 2 2 1 0 0 1 1 1 2 1 1 1 1 1 1 1 0 0 0 0 0
Wind_Speed_500mb
29 24 8 44 43 39 38 40 44 41 37 38 38 34 30 25 22 19 16 14 11 7 6 5 5 9 13 16 18 20 22 19
32 29 19 28 44 39 37 40 40 41 38 38 37 33 28 24 21 18 15 14 11 8 5 3 5 10 13 16 18 20 26 15
23 30 20 14 46 40 37 37 43 42 39 40 36 32 28 24 21 19 17 13 11 8 3 1 5 10 12 16 19 21 18 10
18 21 18 19 50 43 39 37 40 44 42 40 37 33 30 27 23 20 16 14 11 7 3 0 6 10 14 19 23 23 14 14
23 19 24 21 52 49 44 41 42 43 44 42 39 35 31 29 25 20 17 14 12 8 4 1 5 10 16 25 28 21 8 11
28 32 25 23 49 50 46 48 44 45 46 42 39 36 33 31 27 23 21 17 13 9 5 3 6 10 11 15 25 21 9 14
15 38 36 29 43 46 41 50 53 53 51 49 46 41 36 31 26 22 21 17 16 11 7 5 11 9 10 12 9 20 8 17
26 32 41 51 46 46 48 43 54 55 55 52 50 46 39 27 21 26 26 18 18 12 9 9 5 7 13 11 7 11 8 1
41 29 42 42 47 45 53 46 48 51 55 55 53 47 45 41 34 36 18 17 20 13 5 4 7 14 2 2 6 4 6 9
18 16 5 30 50 44 51 50 43 45 50 47 46 48 53 42 43 36 33 17 9 13 12 15 15 5 5 2 6 10 15 2
11 27 31 33 47 59 49 49 48 52 48 41 47 48 53 51 44 42 35 37 23 23 22 16 24 11 12 13 11 15 7 9
25 29 35 35 53 57 62 53 56 59 56 52 53 48 57 49 44 41 44 46 31 28 24 23 16 11 12 12 15 12 5 5
27 36 28 40 41 59 74 55 64 59 56 60 55 54 51 54 47 49 41 37 32 31 30 24 16 10 14 17 12 7 8 7
43 38 40 39 46 50 83 68 71 65 67 67 65 66 57 60 55 53 41 34 34 31 21 27 19 19 17 16 7 4 8 9
45 47 54 50 55 56 62 88 85 81 82 82 80 75 63 59 58 56 41 41 41 41 35 33 24 21 16 12 7 21 10 16
45 49 44 51 53 63 63 84 92 79 77 71 76 74 64 63 59 62 42 45 47 43 29 29 31 29 17 18 19 18 5 6
46 51 55 62 66 64 71 75 94 87 84 81 75 75 69 67 64 58 55 47 53 37 38 42 38 22 20 25 20 15 13 18
45 61 64 68 73 70 79 76 82 89 69 79 80 76 72 69 67 59 54 46 37 46 42 39 32 28 20 20 26 15 8 6
56 60 68 67 71 72 76 81 83 93 85 92 83 84 76 73 67 59 63 45 36 42 39 30 25 32 25 18 16 26 15 5
Wind_Direction_500mb
194 206 252 196 189 186 185 181 185 182 180 178 177 171 172 172 171 174 174 165 156 147 127 86 39 38 50 44 38 37 43 23
182 202 200 202 192 189 188 186 188 187 185 183 183 177 177 179 181 182 182 175 163 159 137 71 37 50 43 36 34 42 55 31
183 197 194 222 195 190 190 194 190 192 190 189 189 183 183 187 188 188 190 187 172 162 161 42 57 60 43 33 44 51 49 15
198 211 211 223 193 191 192 195 195 198 194 195 192 191 190 193 193 196 196 196 182 176 196 13 63 56 42 34 49 64 63 56
179 203 240 236 192 192 191 195 194 201 199 198 199 198 197 197 197 203 201 201 195 195 204 141 73 52 61 63 62 83 93 90
198 195 220 201 194 196 197 193 194 198 202 202 204 206 202 201 203 206 206 198 208 206 187 141 56 68 96 67 82 78 359 111
217 182 189 195 198 191 200 202 194 196 202 204 208 209 201 204 211 215 213 203 210 204 175 87 89 115 46 11 59 57 71 147
201 195 201 188 196 180 190 206 200 200 202 205 211 207 193 184 224 209 223 218 210 198 171 101 86 63 40 15 331 46 77 259
236 211 205 181 196 183 194 210 205 202 205 206 207 201 189 179 214 214 232 217 206 154 191 293 232 152 262 212 297 191 108 28
244 226 249 200 199 199 202 208 205 199 199 204 206 200 185 192 210 198 211 231 197 177 181 204 235 248 190 154 200 205 218 260
273 256 243 215 207 194 192 208 202 199 199 193 204 213 191 204 210 191 196 198 213 192 206 200 206 204 158 185 214 249 237 139
264 246 232 250 231 210 192 215 202 201 201 196 205 217 195 202 209 200 203 197 203 194 193 211 211 207 224 236 274 276 193 204
238 236 247 252 243 226 200 207 198 202 202 199 204 211 207 195 204 203 201 190 201 203 207 208 220 213 205 257 263 229 193 234
249 236 237 249 242 233 210 203 201 198 199 199 200 210 209 196 203 200 188 198 199 198 193 207 195 223 230 244 244 222 185 231
247 241 232 232 247 241 230 216 205 202 202 202 201 209 209 201 202 190 181 208 204 195 206 209 188 213 218 237 222 175 211 197
246 242 225 238 233 244 238 222 212 207 207 205 203 208 206 201 200 190 185 206 211 205 205 192 205 212 201 198 206 249 294 250
248 241 239 239 237 240 243 236 220 213 208 197 200 206 205 195 197 193 189 214 213 188 204 202 213 214 198 219 190 224 219 229
257 246 234 246 242 233 243 244 231 220 214 193 196 206 204 192 193 197 184 209 211 191 209 219 221 196 200 234 193 181 245 86
259 262 237 245 242 238 236 243 236 226 213 202 203 200 205 188 191 196 187 197 206 196 212 221 230 203 188 226 221 201 220 230
Wind_Speed_850mb
29 24 8 44 43 39 38 40 44 41 37 38 38 34 30 25 22 19 16 14 11 7 6 5 5 9 13 16 18 20 22 19
32 29 19 28 44 39 37 40 40 41 38 38 37 33 28 24 21 18 15 14 11 8 5 3 5 10 13 16 18 20 26 15
23 30 20 14 46 40 37 37 43 42 39 40 36 32 28 24 21 19 17 13 11 8 3 1 5 10 12 16 19 21 18 10
18 21 18 19 50 43 39 37 40 44 42 40 37 33 30 27 23 20 16 14 11 7 3 0 6 10 14 19 23 23 14 14
23 19 24 21 52 49 44 41 42 43 44 42 39 35 31 29 25 20 17 14 12 8 4 1 5 10 16 25 28 21 8 11
28 32 25 23 49 50 46 48 44 45 46 42 39 36 33 31 27 23 21 17 13 9 5 3 6 10 11 15 25 21 9 14
15 38 36 29 43 46 41 50 53 53 51 49 46 41 36 31 26 22 21 17 16 11 7 5 11 9 10 12 9 20 8 17
26 32 41 51 46 46 48 43 54 55 55 52 50 46 39 27 21 26 26 18 18 12 9 9 5 7 13 11 7 11 8 1
41 29 42 42 47 45 53 46 48 51 55 55 53 47 45 41 34 36 18 17 20 13 5 4 7 14 2 2 6 4 6 9
18 16 5 30 50 44 51 50 43 45 50 47 46 48 53 42 43 36 33 17 9 13 12 15 15 5 5 2 6 10 15 2
11 27 31 33 47 59 49 49 48 52 48 41 47 48 53 51 44 42 35 37 23 23 22 16 24 11 12 13 11 15 7 9
25 29 35 35 53 57 62 53 56 59 56 52 53 48 57 49 44 41 44 46 31 28 24 23 16 11 12 12 15 12 5 5
27 36 28 40 41 59 74 55 64 59 56 60 55 54 51 54 47 49 41 37 32 31 30 24 16 10 14 17 12 7 8 7
43 38 40 39 46 50 83 68 71 65 67 67 65 66 57 60 55 53 41 34 34 31 21 27 19 19 17 16 7 4 8 9
45 47 54 50 55 56 62 88 85 81 82 82 80 75 63 59 58 56 41 41 41 41 35 33 24 21 16 12 7 21 10 16
45 49 44 51 53 63 63 84 92 79 77 71 76 74 64 63 59 62 42 45 47 43 29 29 31 29 17 18 19 18 5 6
46 51 55 62 66 64 71 75 94 87 84 81 75 75 69 67 64 58 55 47 53 37 38 42 38 22 20 25 20 15 13 18
45 61 64 68 73 70 79 76 82 89 69 79 80 76 72 69 67 59 54 46 37 46 42 39 32 28 20 20 26 15 8 6
56 60 68 67 71 72 76 81 83 93 85 92 83 84 76 73 67 59 63 45 36 42 39 30 25 32 25 18 16 26 15 5
Wind_Direction_850mb
194 206 252 196 189 186 185 181 185 182 180 178 177 171 172 172 171 174 174 165 156 147 127 86 39 38 50 44 38 37 43 23
182 202 200 202 192 189 188 186 188 187 185 183 183 177 177 179 181 182 182 175 163 159 137 71 37 50 43 36 34 42 55 31
183 197 194 222 195 190 190 194 190 192 190 189 189 183 183 187 188 188 190 187 172 162 161 42 57 60 43 33 44 51 49 15
198 211 211 223 193 191 192 195 195 198 194 195 192 191 190 193 193 196 196 196 182 176 196 13 63 56 42 34 49 64 63 56
179 203 240 236 192 192 191 195 194 201 199 198 199 198 197 197 197 203 201 201 195 195 204 141 73 52 61 63 62 83 93 90
198 195 220 201 194 196 197 193 194 198 202 202 204 206 202 201 203 206 206 198 208 206 187 141 56 68 96 67 82 78 359 111
217 182 189 195 198 191 200 202 194 196 202 204 208 209 201 204 211 215 213 203 210 204 175 87 89 115 46 11 59 57 71 147
201 195 201 188 196 180 190 206 200 200 202 205 211 207 193 184 224 209 223 218 210 198 171 101 86 63 40 15 331 46 77 259
236 211 205 181 196 183 194 210 205 202 205 206 207 201 189 179 214 214 232 217 206 154 191 293 232 152 262 212 297 191 108 28
244 226 249 200 199 199 202 208 205 199 199 204 206 200 185 192 210 198 211 231 197 177 181 204 235 248 190 154 200 205 218 260
273 256 243 215 207 194 192 208 202 199 199 193 204 213 191 204 210 191 196 198 213 192 206 200 206 204 158 185 214 249 237 139
264 246 232 250 231 210 192 215 202 201 201 196 205 217 195 202 209 200 203 197 203 194 193 211 211 207 224 236 274 276 193 204
238 236 247 252 243 226 200 207 198 202 202 199 204 211 207 195 204 203 201 190 201 203 207 208 220 213 205 257 263 229 193 234
249 236 237 249 242 233 210 203 201 198 199 199 200 210 209 196 203 200 188 198 199 198 193 207 195 223 230 244 244 222 185 231
247 241 232 232 247 241 230 216 205 202 202 202 201 209 209 201 202 190 181 208 204 195 206 209 188 213 218 237 222 175 211 197
246 242 225 238 233 244 238 222 212 207 207 205 203 208 206 201 200 190 185 206 211 205 205 192 205 212 201 198 206 249 294 250
248 241 239 239 237 240 243 236 220 213 208 197 200 206 205 195 197 193 189 214 213 188 204 202 213 214 198 219 190 224 219 229
257 246 234 246 242 233 243 244 231 220 214 193 196 206 204 192 193 197 184 209 211 191 209 219 221 196 200 234 193 181 245 86
259 262 237 245 242 238 236 243 236 226 213 202 203 200 205 188 191 196 187 197 206 196 212 221 230 203 188 226 221 201 220 230